Weather History for Palma de Mallorca, Spain

Change the Weather History Date:

Wednesday, June 19, 2013

  Actual Average Record
Temperature  
Mean Temperature 72 °F -  
Max Temperature 80 °F 84 °F 93 °F (2012)
Min Temperature 63 °F 63 °F 53 °F (1998)
Cooling Degree Days 6    
Growing Degree Days 22 (Base 50)    
Moisture  
Dew Point 60 °F    
Average Humidity 64    
Maximum Humidity 83    
Minimum Humidity 34    
Precipitation  
Precipitation 0.00 in 0.01 in - ()
Sea Level Pressure  
Sea Level Pressure 29.92 in    
Wind  
Wind Speed 8 mph ()    
Max Wind Speed 20 mph    
Max Gust Speed -    
Visibility 6.6 miles    
Events      
Averages and records for this station are not official NWS values.
T = Trace of Precipitation, MM = Missing Value Source: Averaged Metar Reports

Daily Weather History Graph

Daily Weather History Graph

Search for Another Location

Airport:

Trip Planner

Search our weather history database for the weather conditions in past years. The results will help you decide how hot, cold, wet, or windy it might be!

Date:

Astronomy

Jun. 19, 2013 Rise Set
Actual Time 6:21 AM CEST 9:19 PM CEST
Civil Twilight 5:48 AM CEST 9:52 PM CEST
Nautical Twilight 5:07 AM CEST 10:33 PM CEST
Astronomical Twilight 4:19 AM CEST 11:21 PM CEST
Moon 4:55 PM CEST (6/19) 2:55 AM CEST (6/19)
Length of Visible Light 16h 03m
Length of Day
14h 58m
Waxing Gibbous, 78% of the Moon is Illuminated
Jun 19
Waxing Gibbous
Jun 23
Full
Jun 30
Last Quarter
Jul 8
New
Jul 16
First Quarter

Hourly Weather History & Observations

Time (CEST) Temp. Heat Index Dew Point Humidity Pressure Visibility Wind Dir Wind Speed Gust Speed Precip Events Conditions
12:00 AM 71.6 °F - 64.4 °F 78% 29.86 in 6.2 mi SW 9.2 mph - N/A   Partly Cloudy
12:30 AM 71.6 °F - 62.6 °F 73% 29.86 in 6.2 mi SW 11.5 mph - N/A   Partly Cloudy
1:00 AM 71.6 °F - 60.8 °F 69% 29.86 in 6.2 mi SW 9.2 mph - N/A   Partly Cloudy
1:30 AM 69.8 °F - 60.8 °F 73% 29.86 in 6.2 mi SW 9.2 mph - N/A   Partly Cloudy
2:00 AM 69 °F - 60 °F 65% 29.86 in 7 mi WSW 11.5 mph - -   Scattered Clouds
2:00 AM 69.8 °F - 60.8 °F 73% 29.86 in 6.2 mi SW 6.9 mph - N/A   Partly Cloudy
2:30 AM 69.8 °F - 60.8 °F 73% 29.86 in 6.2 mi SW 6.9 mph - N/A   Partly Cloudy
3:00 AM 69.8 °F - 62.6 °F 78% 29.86 in 6.2 mi SW 8.1 mph - N/A   Partly Cloudy
3:30 AM 69.8 °F - 62.6 °F 78% 29.86 in 6.2 mi SW 6.9 mph - N/A   Partly Cloudy
4:00 AM 69.8 °F - 62.6 °F 78% 29.86 in 6.2 mi SW 8.1 mph - N/A   Partly Cloudy
4:30 AM 69.8 °F - 62.6 °F 78% 29.83 in 6.2 mi SSW 5.8 mph - N/A   Partly Cloudy
5:00 AM 69.8 °F - 62.6 °F 78% 29.86 in 5.0 mi SSW 3.5 mph - N/A   Partly Cloudy
5:30 AM 69.8 °F - 62.6 °F 78% 29.86 in 5.0 mi Variable 1.2 mph - N/A   Partly Cloudy
6:00 AM 68.0 °F - 60.8 °F 78% 29.86 in 6.2 mi SSE 2.3 mph - N/A   Partly Cloudy
6:30 AM 66.2 °F - 60.8 °F 83% 29.86 in 6.2 mi Calm Calm - N/A   Partly Cloudy
7:00 AM 64.4 °F - 59.0 °F 83% 29.86 in 6.2 mi NNW 3.5 mph - N/A   Partly Cloudy
7:30 AM 66.2 °F - 60.8 °F 83% 29.86 in - Calm Calm - N/A   Clear
8:00 AM 67 °F - 60 °F 71% 29.88 in 7 mi Calm Calm - -  
8:00 AM 68.0 °F - 60.8 °F 78% 29.89 in - Variable 1.2 mph - N/A   Clear
8:30 AM 69.8 °F - 62.6 °F 78% 29.89 in 6.2 mi Calm Calm - N/A   Partly Cloudy
9:00 AM 73.4 °F - 62.6 °F 69% 29.89 in 6.2 mi Variable 2.3 mph - N/A   Partly Cloudy
9:30 AM 73.4 °F - 64.4 °F 73% 29.92 in 6.2 mi SW 2.3 mph - N/A   Partly Cloudy
10:00 AM 75.2 °F - 62.6 °F 65% 29.92 in 6.2 mi Variable 2.3 mph - N/A   Partly Cloudy
10:30 AM 75.2 °F - 62.6 °F 65% 29.92 in 6.2 mi Variable 2.3 mph - N/A   Partly Cloudy
11:00 AM 75.2 °F - 64.4 °F 69% 29.92 in 6.2 mi SW 8.1 mph - N/A   Partly Cloudy
11:30 AM 77.0 °F - 64.4 °F 65% 29.95 in 6.2 mi SW 13.8 mph - N/A   Partly Cloudy
12:00 PM 77.0 °F - 62.6 °F 61% 29.95 in 6.2 mi SW 12.7 mph - N/A   Partly Cloudy
12:30 PM 78.8 °F - 60.8 °F 54% 29.95 in 6.2 mi WSW 16.1 mph - N/A   Partly Cloudy
1:00 PM 78.8 °F - 60.8 °F 54% 29.95 in 6.2 mi WSW 19.6 mph - N/A   Partly Cloudy
1:30 PM 80.6 °F 81.5 °F 60.8 °F 51% 29.95 in 6.2 mi WSW 17.3 mph - N/A   Partly Cloudy
2:00 PM 78 °F - 58 °F 40% 29.95 in 16 mi WSW 18.4 mph - -   Scattered Clouds
2:00 PM 78.8 °F - 59.0 °F 51% 29.95 in 6.2 mi SW 13.8 mph - N/A   Partly Cloudy
2:30 PM 80.6 °F - 50.0 °F 34% 29.95 in 6.2 mi SW 15.0 mph - N/A   Partly Cloudy
3:00 PM 78.8 °F - 50.0 °F 36% 29.95 in 6.2 mi SW 15.0 mph - N/A   Partly Cloudy
3:30 PM 80.6 °F - 50.0 °F 34% 29.95 in 6.2 mi SW 17.3 mph - N/A   Partly Cloudy
4:00 PM 80.6 °F - 51.8 °F 37% 29.95 in 6.2 mi WSW 17.3 mph - N/A   Partly Cloudy
4:30 PM 78.8 °F - 51.8 °F 39% 29.95 in 6.2 mi SW 18.4 mph - N/A   Partly Cloudy
5:00 PM 78.8 °F - 55.4 °F 44% 29.95 in 6.2 mi WSW 17.3 mph - N/A   Partly Cloudy
5:30 PM 78.8 °F - 57.2 °F 47% 29.95 in 6.2 mi SW 16.1 mph - N/A   Partly Cloudy
6:00 PM 77.0 °F - 57.2 °F 50% 29.95 in 6.2 mi SW 16.1 mph - N/A   Partly Cloudy
6:30 PM 75.2 °F - 55.4 °F 50% 29.95 in 6.2 mi WSW 16.1 mph - N/A   Partly Cloudy
7:00 PM 73.4 °F - 55.4 °F 53% 29.95 in 6.2 mi WSW 12.7 mph - N/A   Partly Cloudy
7:30 PM 75.2 °F - 57.2 °F 53% 29.95 in 6.2 mi WSW 11.5 mph - N/A   Partly Cloudy
8:00 PM 74 °F - 58 °F 46% 29.97 in 19 mi SW 15.0 mph - -   Scattered Clouds
8:00 PM 73.4 °F - 59.0 °F 61% 29.95 in 6.2 mi SW 12.7 mph - N/A   Partly Cloudy
8:30 PM 73.4 °F - 59.0 °F 61% 29.98 in 6.2 mi SW 11.5 mph - N/A   Partly Cloudy
9:00 PM 71.6 °F - 60.8 °F 69% 29.98 in 6.2 mi SW 11.5 mph - N/A   Partly Cloudy
9:30 PM 71.6 °F - 60.8 °F 69% 29.98 in 6.2 mi WSW 9.2 mph - N/A   Partly Cloudy
10:00 PM 69.8 °F - 60.8 °F 73% 30.01 in 6.2 mi WSW 8.1 mph - N/A   Partly Cloudy
10:30 PM 69.8 °F - 60.8 °F 73% 30.01 in 6.2 mi WSW 6.9 mph - N/A   Partly Cloudy
11:00 PM 69.8 °F - 60.8 °F 73% 30.01 in 6.2 mi WSW 6.9 mph - N/A   Partly Cloudy
11:30 PM 68.0 °F - 60.8 °F 78% 30.01 in 6.2 mi West 3.5 mph - N/A   Partly Cloudy